Regional Weather Roundup
Issued by NWS Pendleton, OR

Home | Current Version | Previous Version | Text Only | Print | Product List | Glossary On
Versions: 1 2 3 4 5 6 7 8 9 10 11 12 13 14 15 16 17 18 19 20 21 22 23 24 25 26 27 28 29 30 31 32 33 34 35 36 37 38 39 40 41 42 43 44 45 46 47 48 49 50
000
ASUS46 KPDT 212104
RWRPDT
PENDLETON REGIONAL WEATHER ROUNDUP
NATIONAL WEATHER SERVICE PENDLETON OREGON
200 PM PDT SUN SEP 21 2014

NOTE: FAIR INDICATES FEW OR NO CLOUDS BELOW 12,000 FEET WITH NO
SIGNIFICANT WEATHER AND/OR OBSTRUCTIONS TO VISIBILITY.

# INDICATES UNOFFICIAL STATION AND DATA

WAZ520-212210-
EAST SLOPES OF WASHINGTON CASCADES

CITY            SKY/WX      TMP DP  RH  WIND    PRES   REMARKS
#BULLFROG       N/A         82  46  28  E1      N/A
#BUMPING DAM    N/A         78  N/A N/A CALM    N/A
#CLE ELUM HS    N/A         81  43  26  SE3     29.90F
#CLE ELUM 2NW   N/A         80  39  23  E3      N/A
#CLE ELUM LAKE  N/A         81  46  29  SW2     29.82F
#CLIFFDEL 2NW   N/A         87  44  22  S2      N/A
#EASTON DOT     N/A         80  31  17  CALM    N/A
#GLENWOOD       N/A         85  54  35  CALM    29.84F
#MANASTASH CYN  N/A         79  46  31  N2      29.97S
#NELSON         N/A         82  47  29  CALM    29.87F
#NELSON 3SW     N/A         78  47  34  CALM    30.04F
#NILE           N/A         83  46  27  SW1     29.14F
#PEOH POINT     N/A         74  41  30  E5      N/A
#RONALD 2NW     N/A         79  48  34  SW1     29.85F
#SNOWDEN        N/A         86  29  13  E3      N/A
#TEANAWAY 4NE   N/A         84  49  30  CALM    N/A
#TROUT LAKE 1NE N/A         83  49  31  SE1     29.84F
$$

WAZ521-212210-
SIMCOE HIGHLANDS

CITY            SKY/WX      TMP DP  RH  WIND    PRES   REMARKS
#BICKLETON HS   N/A         79  36  21  E3      30.06S
#SATUS PASS DOT N/A         84  40  21  CALM    N/A
#CENTERVILLE 4W N/A         83  48  30  SE6     29.70R
#CENTERVILLE 1SWN/A         82  50  33  S7      29.82F
#GOLDENDALE     N/A         82  45  27  SW3     N/A
#GOLDENDALE 1NE N/A         85  39  20  SE2     N/A
#GOLDENDALE 1S  N/A         85  50  30  NE1     29.89F
#GOLDENDALE 5WNWN/A         85  51  31  SE3     29.82F
#GOODNOE HILLS  N/A         88  48  25  SW3     29.84F
#LYLE 6NE       N/A         83  49  31  SW5     29.80F
$$

WAZ026-212210-
KITTITAS VALLEY

CITY            SKY/WX      TMP DP  RH  WIND    PRES   REMARKS
ELLENSBURG AP   SUNNY       87  45  23  E3      29.93F
#ELLENSBURG CWU N/A         83  46  27  E2      29.83F
#ELLENSBURG 3NE N/A         80  50  35  SE1     29.93F
#ELLENSBURG     N/A         90  48  24  CALM    N/A    HX 87
#KITTITAS 3S    N/A         79  55  44  CALM    29.85F
#MANASTASH RDG  N/A         80  80  100 N5      N/A
#ROCKY CYN DOT  N/A         80  49  34  E7      N/A
#RYEGRASS DOT   N/A         78  46  32  E7      N/A
#THORP 6N       N/A         79  44  29  SE7     29.88F
$$

WAZ027-212210-
YAKIMA VALLEY

CITY            SKY/WX      TMP DP  RH  WIND    PRES   REMARKS
SUNNYSIDE AP    CLOUDY      82  55  40  E3      29.89F
YAKIMA AIRPORT  SUNNY       87  43  22  CALM    29.89F
YAKIMA-VAGABOND SUNNY       86  44  23  VRB6    29.90F
#COWICHE 1N     N/A         80  50  35  E1      30.08F
#DONALD 2NE     N/A         94  44  18  E2      30.21F HX 90
#GRANDVIEW      N/A         81  50  34  CALM    29.87F
#MABTON         N/A         82  52  35  CALM    29.88F
#MOXEE 2E       N/A         85  20   9  S7      29.79F
#NACHES 2SW     N/A         85  52  32  CALM    29.99S
#PARKER DOT     N/A         85  47  27  W2      N/A
#SELAH 8E       N/A         86  41  21  W6      N/A
#TERRACE HTS    N/A         85  50  30  CALM    29.82F
#TOPPENISH      N/A         84  49  30  E3      29.77F
#I82 S UMTANUM RN/A         85  53  33  S6      N/A
#UNION GAP DOT  N/A         85  45  25  S1      N/A
#WAPATO 4NE     N/A         94  44  18  E2      30.21F HX 90
#WEST VALLEY    N/A         84  44  25  CALM    29.83F
#W YAKIMA       N/A         85  47  27  W1      29.83F
#WHITE SWAN 5E  N/A         84  50  31  E5      29.85F
#WILEY CITY 3W  N/A         83  41  23  CALM    29.92F
#ZILLAH DOT     N/A         83  48  30  E5      N/A
$$

WAZ028-212210-
LOWER COLUMBIA BASIN...WASHINGTON

CITY            SKY/WX      TMP DP  RH  WIND    PRES   REMARKS
HANFORD         MOSUNNY     86  42  21  N5      29.89F
PASCO           SUNNY       82  52  35  NW5     29.88F
PROSSER AWOS    N/A         84  50  31  W2      29.91F
RICHLAND AWOS   SUNNY       82  45  27  SE5     29.88F
#BASIN CITY 5SW N/A         82  60  47  CALM    29.88F
#BENTON CITY    N/A         81  53  38  CALM    29.77F
#CONNELL 5N     N/A         86  49  28  NW2     29.85F
#CONNELL 5NW    N/A         82  50  33  CALM    29.83S
#ELTOPIA 6NW    N/A         83  52  34  N5      28.87F
#KENNEWICK 3S   N/A         80  53  39  CALM    29.87F
#PASCO-BROADMOORN/A         87  54  32  N1      29.75F
#PATERSON       N/A         81  51  35  S2      29.84F
#PROSSER DOT    N/A         85  49  29  NW1     N/A
#PROSSER        N/A         84  45  26  N2      29.85F
#SAGEMOOR 2W    N/A         79  53  41  SW1     29.73F
#TOUCHET 2S     N/A         80  52  38  NW5     29.84F
#WEST PASCO     N/A         82  55  40  CALM    29.87F
$$

WAZ029-212210-
FOOTHILLS OF THE BLUES...WASHINGTON

CITY            SKY/WX      TMP DP  RH  WIND    PRES   REMARKS
WALLA WALLA AP  SUNNY       82  46  28  S5      29.91F
#DAYTON SCHOOL  N/A         85  44  24  CALM    29.90F
#LOWDEN 2SE     N/A         82  54  38  W6      29.85F
#PLEASANT VIEW 1N/A         86  44  23  CALM    29.87F
#PRESCOTT       N/A         86  48  27  CALM    29.83F
#SUDBURY        N/A         86  N/A N/A SW6     N/A
#WHITMAN COLLEGEN/A         80  50  35  CALM    29.90F
#WAITSBURG 8N   N/A         93  37  14  W1      29.85S HX 89
#WALLA WALLA 5E N/A         83  51  33  W7      N/A
#WALLA WALLA U  N/A         81  51  35  CALM    29.85F
#WHITMAN MISSIONN/A         82  54  38  NW1     29.86F
$$

WAZ030-212210-
BLUE MOUNTAINS...WASHINGTON

CITY            SKY/WX      TMP DP  RH  WIND    PRES   REMARKS
$$

ORZ009-041-WAZ024-212210-
COLUMBIA RIVER GORGE

CITY            SKY/WX      TMP DP  RH  WIND    PRES   REMARKS
HOOD RIVER AP   SUNNY       88  48  25  NE6     29.86F
THE DALLES AP   SUNNY       90  46  22  VRB3    29.83F HX 87
#ARLINGTON AIRPON/A         83  48  30  E3      29.94S
#ARLINGTON HS   N/A         82  46  28  SE6     29.76F
#MARYHILL       N/A         85  47  27  W6      N/A
#MARYHILL 2W    N/A         92  52  26  CALM    N/A    HX 89
#MOSIER 1S      N/A         88  39  18  CALM    29.88F
#MURDOCK        N/A         89  52  28  S3      29.84F
#RUFUS DOT      N/A         N/A N/A N/A CALM    N/A

$$

ORZ510-212210-
NORTH CENTRAL OREGON

CITY            SKY/WX      TMP DP  RH  WIND    PRES   REMARKS
#CHENOWITH 1W   N/A         84  43  24  E7      N/A
#COW CYN RST AREN/A         81  44  27  E2      N/A
#DUFUR 9E       N/A         79  44  29  SE5     29.86F
#GRASS VALLEY   N/A         83  44  25  E2      N/A
#GRASS VALLEY 1SN/A         83  48  30  E2      29.85
#KENT DOT       N/A         83  44  25  NE3     N/A
#MAUPIN SCHOOL  N/A         86  53  32  CALM    28.75F
#MORO SCHOOL    N/A         83  53  36  E5      29.93F
#SHANIKO 5WSW   N/A         81  47  30  NW9     N/A
#SHANIKO 4NW    N/A         78  43  29  N7      30.01F
#TYGH VALLEY 2NEN/A         84  53  34  S1      29.83F
#WAPANITIA AIRPON/A         82  49  32  E1      29.85F
#WASCO DOT      N/A         86  52  31  E10     N/A
#WASCO 5NE      N/A         84  49  30  CALM    29.85F
$$

ORZ511-212210-
CENTRAL OREGON

CITY            SKY/WX      TMP DP  RH  WIND    PRES   REMARKS
BEND AIRPORT    PTCLDY      81  45  28  CALM    29.99F
MADRAS AIRPORT  MOCLDY      77  46  33  N5      29.96F
REDMOND AIRPORT PTCLDY      83  42  24  VRB5    29.96F
#BEND 6E        N/A         80  42  26  CALM    29.75F
#BEND 1SW       N/A         80  48  33  E3      N/A
#BEND-AWBREY    N/A         81  51  35  CALM    29.82F
#BEND-KIM LN    N/A         80  52  38  CALM    29.97F
#CROOKED RVR RANN/A         80  50  35  E2      29.82F
#CULVER         N/A         79  50  36  VRB1    29.91F
#LAKE BILLY CHINN/A         78   6   6  E6      29.97F
#POWELL BUTTE   N/A         83  53  36  NW3     29.62F
#PRINEVILLE 3N  N/A         80  53  39  S3      29.78F
#WARM SPRINGS   N/A         82  50  33  CALM    29.88F


ORZ509-212210-
EAST SLOPES OF OREGON CASCADES

CITY            SKY/WX      TMP DP  RH  WIND    PRES   REMARKS
#BLUE BOX PASS  N/A         82  23  11  CALM    N/A
#CAMP SHERMAN   N/A         85  47  27  VRB1    29.84F
#LA PINE DOT    N/A         82  37  20  W3      N/A
#LA PINE 4NW    N/A         78  49  36  W1      29.86F
#LAVA BUTTE DOT N/A         86  45  24  CALM    N/A
#MT BACHELOR-MIDN/A         64  40  41  CALM    N/A
#SISTERS AIRPOR N/A         82  56  41  CALM    29.91S
#SISTERS ODOT   N/A         81  N/A N/A NE1     N/A
#SISTERS 3N     N/A         81  50  34  E3      N/A
#SUNRIVER       N/A         80  48  33  S1      29.72F
#SUNRIVER AP    N/A         79  48  34  SE1     29.79F
#SUTTLE LK DOT  N/A         71  49  46  E5      N/A
#TUMALO 3W      N/A         78  48  35  CALM    29.71F
#WANOGA BUTTE D N/A         76  39  26  CALM    N/A

$$

ORZ044-212210-
LOWER COLUMBIA BASIN...OREGON

CITY            SKY/WX      TMP DP  RH  WIND    PRES   REMARKS
HERMISTON       SUNNY       85  46  26  VRB3    29.87F
#BOARDMAN SCHOOLN/A         81  48  32  CALM    29.85F
#BOARDMAN 3W    N/A         82  55  40  NE3     29.56F
#BOARDMAN 8SW   N/A         82  52  35  N3      29.84F
#ECHO 8SW       N/A         84  48  29  VRB1    29.86F
#IONE SCHOOL    N/A         82  47  29  N2      29.88F
#IRRIGON 4NW    N/A         83  48  30  NW2     N/A
#UMATILLA       N/A         85  47  27  CALM    29.83F
$$

ORZ507-212210-
NORTHERN FOOTHILLS OF THE BLUES

CITY            SKY/WX      TMP DP  RH  WIND    PRES   REMARKS
PENDLETON AIRPT SUNNY       86  41  21  VRB3    29.89F
#ADAMS 3WNW     N/A         84  45  26  CALM    29.84F
#ATHENA         N/A         81  47  30  CALM    29.88F
#HELIX SCHOOL   N/A         80  45  29  N1      29.85F
#HELIX 3N       N/A         79  43  28  N7      29.90F
#HELIX 6SW      N/A         83  45  26  N6      29.90F
#HOLDMAN 5SE    N/A         83  46  27  CALM    29.91F
#HOLDMAN 6E     N/A         81  43  26  S3      29.67F
#M-F GROVE ELEM N/A         78  43  29  N3      29.90F
#M-FREEWATER 5SEN/A         81  54  39  NW3     29.90F
#PENDLETON DNTN N/A         89  46  23  W2      29.88F
#PDT AQUATIC CTRN/A         86  53  32  CALM    29.88F
#PENDLETON 5NE  N/A         87  49  27  N2      29.85F
#PDT SUNRIDGE   N/A         87  47  25  N2      29.89F
#PENDLETON 7NW  N/A         82  54  38  N1      30.63S
#PILOT ROCK     N/A         83  46  27  N5      29.93F
#TUTUILLA       N/A         85  45  25  N1      29.86F
#UMAPINE 2E     N/A         82  54  38  NW1     29.85F
#WESTON SCHOOL  N/A         79  42  27  E2      29.88F

$$

ORZ508-212210-
SOUTHERN FOOTHILLS OF THE BLUES

CITY            SKY/WX      TMP DP  RH  WIND    PRES   REMARKS
LEXINGTON       SUNNY       84  45  26  N8      29.92F
#AJAX           N/A         82  42  24  NE6     29.88F
#CONDON SCHOOL  N/A         81  47  30  CALM    29.93F
#CONDON 5W      N/A         79  41  26  N5      29.97F
#FOSSIL SCHOOL  N/A         84  46  27  N5      29.93F
#HEPPNER EOC    N/A         85  47  27  N3      29.79F
#HEPPNER 4NE    N/A         79  45  30  N7      29.85F
#LEXINGTON 2SE  N/A         84  46  27  N9      29.86F
#MIKKALO        N/A         86  44  23  NE1     29.92F
#OLEX 4N        N/A         81  47  30  NE3     29.89F
#RUGGS 5NE      N/A         85  48  28  VRB6    30.14S
#RUGGS 2SW      N/A         80  45  29  N7      29.86F

$$

ORZ502-503-212210-
BLUE MOUNTAINS

CITY            SKY/WX      TMP DP  RH  WIND    PRES   REMARKS
MEACHAM         PTCLDY      84  43  24  VRB7    30.01F
#BATTLE MTN DOT N/A         80  55  42  N5      N/A
#HARDMAN 10S    N/A         86  46  25  N3      30.09F
#HEPPNER 15SE   N/A         84  47  28  N2      29.95F
#LADD CYN SMT   N/A         81  41  24  SE7     N/A
#LADD CREEK ODOTN/A         78  53  42  NE5     N/A
#N POWDER DOT   N/A         83  51  33  NW3     N/A
#PIKES PEAK     N/A         76  47  36  CALM    27.99S
#TOLLGATE       N/A         77  44  31  W1      30.02F
#TOLLGATE 9W    N/A         79  41  26  NW5     N/A
#TROY SCHOOL    N/A         91  49  24  SE3     29.66F HX 88
#UKIAH          N/A         85  44  24  N7      29.90F
#WESTON 4E      N/A         79  48  34  N1      29.78F
$$

ORZ505-212210-
JOHN DAY BASIN

CITY            SKY/WX      TMP DP  RH  WIND    PRES   REMARKS
JOHN DAY        MOCLDY      88  35  15  NW5     29.99F
#JOHN DAY KJDY  N/A         85  44  24  CALM    30.09R
#MONUMENT HS    N/A         86  44  23  CALM    29.91F
#MT. VERNON 5SE N/A         85  41  21  NE1     29.96F
#WINLOCK        N/A         94  43  17  NW6     30.05F HX 90
$$

ORZ506-212210-
OCHOCO AND JOHN DAY HIGHLANDS

CITY            SKY/WX      TMP DP  RH  WIND    PRES   REMARKS
#BUCK CREEK DOT N/A         82  48  31  CALM    N/A
#HORSE RIDGE DO N/A         80  43  27  NW10    N/A
#KEYES SMT DOT  N/A         81  44  27  NW6     N/A
#PAULINA SCHOOL N/A         86  38  18  NE2     29.99F
#PINE MTN OBS   N/A         73  43  34  NW6     N/A
#PRAIRIE CITY   N/A         87  41  20  CALM    29.72F
#SENECA 9NW     N/A         79  40  25  CALM    29.86F
$$

ORZ049-212210-
GRANDE RONDE VALLEY

CITY            SKY/WX      TMP DP  RH  WIND    PRES   REMARKS
LA GRANDE       PTCLDY      81  45  28  N6      29.96F
#COVE           N/A         81  54  39  NE2     29.89F
#COVE SCHOOL    N/A         82  49  32  CALM    29.96F
#COVE 6NW       N/A         79  47  32  CALM    29.92F
#ELGIN 3N       N/A         85  38  19  S5      29.68F
#ELGIN 1E       N/A         87  47  25  CALM    N/A
#IMBLER SCHOOL  N/A         81  50  34  SW2     29.92F
#LADD CYN DOT   N/A         81  52  37  N2      N/A
#LA GRANDE ELEM N/A         80  47  31  W2      29.95F
#UNION 1S       N/A         79  53  41  CALM    29.78F
$$

ORZ050-212210-
WALLOWA COUNTY

CITY            SKY/WX      TMP DP  RH  WIND    PRES   REMARKS
#ENTERPRISE AP  N/A         81  35  19  W6      29.97F
#ENTERPRISE HS  N/A         81  46  29  NW5     30.00F
#IMNAHA SCHOOL  N/A         86  40  20  N7      29.79F
#IMNAHA 10S     N/A         86  47  26  NE7     29.94F
#JOSEPH 3N      N/A         80  47  31  NW8     30.04F
#JOSEPH 3W      N/A         79  35  20  E3      29.92F
#LOSTINE        N/A         82  47  29  CALM    29.68F
#MT HOWARD 8000 N/A         66  37  34  CALM    30.32F
#PROMISE 1S     N/A         82  46  28  SW2     29.93F
#SHEEP RDG 7000 N/A         65  36  34  CALM    29.83F
#WALLOWA SCHOOL N/A         83  46  27  CALM    30.76F



$$



USA.gov is the U.S. government's official web portal to all federal, state and local government web resources and services.